Miami, FL

8:15 AM EDT on September 29, 2016 (GMT -0400)
Miami International

Weather History for KMIA - July, 2013

Change the Weather History Date:

Tuesday, July 30, 2013

  Actual Average Record
Temperature  
Mean Temperature 85 °F 85 °F  
Max Temperature 91 °F 91 °F 95 °F (1999)
Min Temperature 79 °F 78 °F 71 °F (1928)
Degree Days  
Heating Degree Days 0 0  
Month to date heating degree days 0 0  
Since 1 June heating degree days 0 0  
Since 1 July heating degree days 0 0  
Cooling Degree Days 20 20  
Month to date cooling degree days 531 573  
Year to date cooling degree days 2524 2461  
Since 1 June cooling degree days 1079 1105  
Growing Degree Days 35 (Base 50)    
Moisture  
Dew Point 75 °F    
Average Humidity 77    
Maximum Humidity 91    
Minimum Humidity 63    
Precipitation  
Precipitation 0.08 in 0.21 in 2.70 in (1969)
Month to date precipitation 12.49 6.29  
Year to date precipitation 38.04 31.31  
Snow  
Snow 0.00 in - - ()
Month to date snowfall 0.0  
Since 1 June snowfall 0.0  
Since 1 July snowfall 0.0  
Snow Depth 0.00 in    
Sea Level Pressure  
Sea Level Pressure 30.13 in    
Wind  
Wind Speed 7 mph (East)    
Max Wind Speed 20 mph    
Max Gust Speed 23 mph    
Visibility 10 miles    
Events Rain , Thunderstorm    
T = Trace of Precipitation, MM = Missing Value Source: NWS Daily Summary

Daily Weather History Graph

Daily Weather History Graph

Search for Another Location

Airport or City:

Trip Planner

Search our weather history database for the weather conditions in past years. The results will help you decide how hot, cold, wet, or windy it might be!

Date:

Astronomy

Jul. 30, 2013 Rise Set
Actual Time 6:46 AM EDT 8:08 PM EDT
Civil Twilight 6:21 AM EDT 8:33 PM EDT
Nautical Twilight 5:52 AM EDT 9:02 PM EDT
Astronomical Twilight 5:21 AM EDT 9:33 PM EDT
Moon 12:58 AM EDT (7/30) 2:28 PM EDT (7/30)
Length of Visible Light 14h 11m
Length of Day
13h 21m
Last Quarter, 41% of the Moon is Illuminated
Jul 30
Last Quarter
Aug 6
New
Aug 14
First Quarter
Aug 20
Full
Aug 28
Last Quarter

Hourly Weather History & Observations

Time (EDT) Temp. Heat Index Dew Point Humidity Pressure Visibility Wind Dir Wind Speed Gust Speed Precip Events Conditions
12:53 AM 84.0 °F 92.6 °F 75.9 °F 76% 30.14 in 10.0 mi East 8.1 mph - N/A   Mostly Cloudy
1:22 AM 82.4 °F 89.5 °F 75.2 °F 79% 30.14 in 10.0 mi East 5.8 mph - N/A Thunderstorm Thunderstorm
1:53 AM 79.0 °F - 73.9 °F 84% 30.13 in 10.0 mi ESE 4.6 mph - 0.01 in Rain Light Rain
2:37 AM 80.6 °F 86.2 °F 75.2 °F 84% 30.12 in 10.0 mi East 4.6 mph - 0.00 in   Mostly Cloudy
2:53 AM 82.0 °F 89.4 °F 75.9 °F 82% 30.11 in 10.0 mi East 3.5 mph - 0.00 in   Mostly Cloudy
3:53 AM 81.0 °F 87.9 °F 77.0 °F 88% 30.10 in 10.0 mi ESE 4.6 mph - N/A   Mostly Cloudy
4:53 AM 82.0 °F 90.2 °F 77.0 °F 85% 30.09 in 10.0 mi Calm Calm - N/A   Mostly Cloudy
5:53 AM 82.0 °F 89.4 °F 75.9 °F 82% 30.10 in 10.0 mi Calm Calm - N/A   Mostly Cloudy
6:53 AM 81.0 °F 87.9 °F 77.0 °F 88% 30.11 in 10.0 mi ESE 5.8 mph - 0.00 in   Mostly Cloudy
7:53 AM 82.9 °F 91.8 °F 77.0 °F 82% 30.13 in 10.0 mi Calm Calm - N/A   Mostly Cloudy
8:53 AM 82.9 °F 90.2 °F 75.0 °F 77% 30.14 in 10.0 mi ENE 5.8 mph - N/A   Mostly Cloudy
9:53 AM 84.0 °F 92.6 °F 75.9 °F 76% 30.16 in 10.0 mi NE 4.6 mph - N/A   Mostly Cloudy
10:21 AM 80.6 °F 86.2 °F 75.2 °F 84% 30.17 in 5.0 mi ENE 10.4 mph 19.6 mph 0.00 in Rain Rain
10:53 AM 80.1 °F 84.5 °F 73.9 °F 81% 30.17 in 10.0 mi ENE 5.8 mph - 0.07 in   Mostly Cloudy
11:53 AM 82.9 °F 90.2 °F 75.0 °F 77% 30.17 in 10.0 mi ENE 5.8 mph - N/A   Mostly Cloudy
12:53 PM 88.0 °F 101.3 °F 78.1 °F 72% 30.16 in 10.0 mi East 8.1 mph - N/A   Mostly Cloudy
1:15 PM 84.2 °F 92.3 °F 75.2 °F 74% 30.14 in 10.0 mi ENE 6.9 mph - 0.00 in Rain Light Rain
1:53 PM 88.0 °F 98.5 °F 75.9 °F 67% 30.14 in 10.0 mi East 13.8 mph - 0.00 in   Mostly Cloudy
2:53 PM 90.0 °F 101.3 °F 75.9 °F 63% 30.13 in 10.0 mi East 12.7 mph 17.3 mph N/A   Mostly Cloudy
3:46 PM 89.6 °F 99.8 °F 75.2 °F 62% 30.11 in 10.0 mi East 12.7 mph - N/A   Mostly Cloudy
3:53 PM 87.1 °F 96.3 °F 75.0 °F 67% 30.11 in 10.0 mi ENE 11.5 mph - 0.00 in Rain Light Rain
4:53 PM 89.1 °F 98.0 °F 73.9 °F 61% 30.10 in 10.0 mi NE 9.2 mph 17.3 mph 0.00 in   Scattered Clouds
5:53 PM 88.0 °F 96.5 °F 73.9 °F 63% 30.09 in 10.0 mi ENE 9.2 mph - N/A   Scattered Clouds
6:53 PM 86.0 °F 93.8 °F 73.9 °F 67% 30.09 in 10.0 mi East 12.7 mph - N/A   Scattered Clouds
7:53 PM 84.0 °F 91.2 °F 73.9 °F 72% 30.11 in 10.0 mi East 11.5 mph - N/A   Scattered Clouds
8:53 PM 84.0 °F 91.9 °F 75.0 °F 74% 30.12 in 10.0 mi East 11.5 mph - N/A   Mostly Cloudy
9:53 PM 82.9 °F 90.2 °F 75.0 °F 77% 30.13 in 10.0 mi East 6.9 mph - N/A   Scattered Clouds
10:53 PM 82.9 °F 90.2 °F 75.0 °F 77% 30.11 in 10.0 mi East 6.9 mph - N/A   Scattered Clouds
11:53 PM 82.9 °F 89.4 °F 73.9 °F 74% 30.11 in 10.0 mi East 8.1 mph - N/A   Partly Cloudy